Oceanside, CA

10:13 PM PDT on April 21, 2018 (GMT -0700)
Oceanside Municipal

Weather History for KOKB - January, 2014

Change the Weather History Date:

Friday, January 31, 2014

  Actual Average Record
Temperature  
Mean Temperature 61 °F 54 °F  
Max Temperature 65 °F 66 °F 87 °F (2003)
Min Temperature 57 °F 42 °F 28 °F (2002)
Degree Days  
Heating Degree Days 4 11  
Month to date heating degree days 268 371  
Since 1 July heating degree days 918 1105  
Cooling Degree Days 0 0  
Month to date cooling degree days 0 0  
Year to date cooling degree days 0 0  
Growing Degree Days 4 (Base 50)    
Moisture  
Dew Point 47 °F    
Average Humidity 71    
Maximum Humidity 86    
Minimum Humidity 56    
Precipitation  
Precipitation 0.01 in 0.09 in 0.18 in (2016)
Month to date precipitation 0.04 2.65  
Year to date precipitation 0.04 2.65  
Since 1 July precipitation 1.64  
Snow  
Snow 0.00 in - - ()
Month to date snowfall 0.0  
Year to date snowfall 0.0  
Snow Depth 0.00 in    
Sea Level Pressure  
Sea Level Pressure 29.94 in    
Wind  
Wind Speed 7 mph (West)    
Max Wind Speed 14 mph    
Max Gust Speed 19 mph    
Visibility 10 miles    
Events Rain    
T = Trace of Precipitation, MM = Missing Value Source: NWS Daily Summary

Daily Weather History Graph

Daily Weather History Graph

Search for Another Location

Airport or City:

Astronomy

Jan. 31, 2014 Rise Set
Actual Time 6:45 AM PST 5:20 PM PST
Civil Twilight 6:19 AM PST 5:46 PM PST
Nautical Twilight 5:49 AM PST 6:16 PM PST
Astronomical Twilight 5:20 AM PST 6:45 PM PST
Moon 7:04 AM PST (1/31) 6:43 PM PST (1/31)
Length of Visible Light 11h 26m
Length of Day
10h 34m
New Moon, 1% of the Moon is Illuminated
Jan 31
New Moon
Feb 6
First Quarter
Feb 14
Full
Feb 22
Last Quarter
Mar 1
New

Hourly Weather History & Observations

Time (PST) Temp. Dew Point Humidity Pressure Visibility Wind Dir Wind Speed Gust Speed Precip Events Conditions
12:15 AM 57.9 °F 54.0 °F 87% 29.91 in 6.0 mi West 6.9 mph - 0.00 in Rain Light Rain
12:52 AM 57.9 °F 54.0 °F 87% 29.91 in 6.0 mi West 4.6 mph - 0.00 in Rain Light Rain
1:52 AM 59.0 °F 52.0 °F 78% 29.91 in 10.0 mi West 6.9 mph - 0.00 in   Overcast
2:52 AM 59.0 °F 52.0 °F 78% 29.90 in 10.0 mi West 5.8 mph - N/A   Overcast
3:52 AM 59.0 °F 50.0 °F 72% 29.89 in 10.0 mi West 4.6 mph - 0.00 in   Overcast
4:52 AM 57.9 °F 50.0 °F 75% 29.90 in 9.0 mi West 6.9 mph - 0.00 in Rain Light Rain
5:23 AM 57.9 °F 48.9 °F 72% 29.91 in 10.0 mi West 6.9 mph - 0.00 in   Overcast
5:52 AM 57.0 °F 50.0 °F 77% 29.93 in 7.0 mi WSW 6.9 mph - 0.01 in Rain Light Rain
6:03 AM 57.0 °F 51.1 °F 81% 29.93 in 10.0 mi West 5.8 mph - 0.00 in   Overcast
6:52 AM 57.9 °F 48.9 °F 72% 29.95 in 10.0 mi West 5.8 mph - 0.00 in   Mostly Cloudy
7:52 AM 57.9 °F 48.9 °F 72% 29.96 in 10.0 mi WNW 4.6 mph - N/A   Scattered Clouds
8:52 AM 59.0 °F 48.0 °F 67% 29.98 in 10.0 mi WNW 11.5 mph - N/A   Mostly Cloudy
9:52 AM 60.1 °F 48.0 °F 64% 30.00 in 10.0 mi WNW 8.1 mph - N/A   Mostly Cloudy
10:52 AM 60.1 °F 48.0 °F 64% 29.99 in 10.0 mi WNW 10.4 mph - N/A   Scattered Clouds
11:52 AM 61.0 °F 46.9 °F 60% 29.96 in 10.0 mi West 9.2 mph - N/A   Clear
12:52 PM 61.0 °F 46.9 °F 60% 29.93 in 10.0 mi West 8.1 mph - N/A   Mostly Cloudy
1:52 PM 62.1 °F 46.9 °F 58% 29.93 in 10.0 mi WNW 5.8 mph - N/A   Clear
2:52 PM 62.1 °F 46.0 °F 56% 29.91 in 10.0 mi West 6.9 mph - N/A   Partly Cloudy
3:52 PM 61.0 °F 44.1 °F 54% 29.92 in 10.0 mi West 8.1 mph - N/A   Clear
4:52 PM 59.0 °F 45.0 °F 60% 29.92 in 10.0 mi WSW 5.8 mph - N/A   Clear
5:52 PM 57.0 °F 46.0 °F 67% 29.93 in 10.0 mi WNW 3.5 mph - N/A   Mostly Cloudy
6:52 PM 51.1 °F 44.1 °F 77% 29.94 in 10.0 mi Calm Calm - N/A   Clear
7:52 PM 48.0 °F 42.1 °F 80% 29.95 in 10.0 mi Calm Calm - N/A   Clear
8:52 PM 46.9 °F 42.1 °F 83% 29.95 in 10.0 mi Calm Calm - N/A   Clear
9:52 PM 45.0 °F 41.0 °F 86% 29.95 in 10.0 mi Calm Calm - N/A   Clear
10:52 PM 45.0 °F 41.0 °F 86% 29.96 in 10.0 mi Calm Calm - N/A   Clear
11:52 PM 43.0 °F 41.0 °F 93% 29.96 in 9.0 mi Calm Calm - N/A   Clear